Flag for Burundi Weather past 2 weeks in Gitega, Burundi

Now
75 °F

Passing clouds.


Feels Like: 77 °F
Forecast: 60 / 76 °F
Wind: 3 mph from South

Location: Kigali Airport

Current Time: May 24, 2015 at 9:49:10 AM

Latest Report: May 24, 2015 at 9:30 AM


Visibility: N/A

Pressure: 30.24 "Hg

Humidity: 61%

Dew point: 61 °F

Location of GitegaLocation

Historic Weather in Gitega — Graph

°F

Gitega temperature yesterday

Maximum temperature yesterday: 79 °F (at 1:30 PM)
Minimum temperature yesterday: 64 °F (at 6:30 AM)
Average temperature yesterday: 72 °F

Past Weeks' High & Low Weather Summary

 TemperatureHumidityPressure
High82 °F (May 11, 2:00 PM)100% (May 9, 9:00 AM)30.27 "Hg (May 9, 9:00 AM)
Low61 °F (May 15, 4:30 AM)51% (May 17, 3:30 PM)30.04 "Hg (May 17, 4:30 PM)
Average71 °F85%30.17 "Hg
* Reported May 9 9:00 AM — May 24 9:00 AM, Gitega, Weather by CustomWeather, © 2015

Note: Actual official high and low records may vary slightly from our data, if they occured in-between our weather recording intervals... More about our weather records

Advertising

Gitega weather history for previous 24 hours

 ConditionsComfort  
Time TempWeatherWind HumidityBarometerVisibility
9:00 AM
Sun, May 24
75 °FPassing clouds.No wind65%30.21 "HgN/A
8:30 AM72 °FPassing clouds.3 mph73%30.21 "HgN/A
8:00 AM68 °FPassing clouds.3 mph88%30.21 "HgN/A
7:30 AM64 °FPassing clouds.5 mph94%30.21 "HgN/A
7:00 AM63 °FPassing clouds.No wind100%30.18 "HgN/A
6:30 AM63 °FPassing clouds.No wind100%30.18 "HgN/A
6:00 AM63 °FScattered clouds.No wind100%30.18 "HgN/A
5:30 AM63 °FPassing clouds.No wind100%30.18 "HgN/A
5:00 AM63 °FPassing clouds.No wind100%30.18 "HgN/A
4:30 AM64 °FPassing clouds.No wind94%30.15 "HgN/A
4:00 AM64 °FPassing clouds.No wind94%30.15 "HgN/A
3:30 AM64 °FPassing clouds.3 mph94%30.15 "HgN/A
3:00 AM64 °FPassing clouds.No wind100%30.15 "HgN/A
2:30 AM66 °FPassing clouds.No wind94%30.18 "HgN/A
2:00 AM66 °FPassing clouds.No wind94%30.15 "HgN/A
1:30 AM66 °FPassing clouds.No wind94%30.18 "HgN/A
1:00 AM66 °FPassing clouds.No wind94%30.18 "HgN/A
12:30 AM68 °FPassing clouds.No wind83%30.18 "HgN/A
12:00 AM68 °FPassing clouds.No wind83%30.18 "HgN/A
11:30 PM
Sat, May 23
68 °FPassing clouds.3 mph83%30.18 "HgN/A
11:00 PM70 °FPassing clouds.3 mph78%30.18 "HgN/A
10:30 PM68 °FPassing clouds.No wind83%30.18 "HgN/A
10:00 PM70 °FPassing clouds.No wind78%30.18 "HgN/A
9:30 PM70 °FPassing clouds.No wind78%30.18 "HgN/A
9:00 PM70 °FPassing clouds.No wind83%30.18 "HgN/A
8:30 PM72 °FPassing clouds.No wind73%30.15 "HgN/A
8:00 PM72 °FPassing clouds.No wind73%30.15 "HgN/A
7:00 PM72 °FPassing clouds.3 mph73%30.12 "HgN/A
6:30 PM73 °FPassing clouds.3 mph69%30.12 "HgN/A
6:00 PM75 °FPassing clouds.No wind65%30.12 "HgN/A
5:30 PM77 °FPassing clouds.3 mph61%30.09 "HgN/A
5:00 PM79 °FPassing clouds.5 mph58%30.09 "HgN/A
4:30 PM79 °FScattered clouds.5 mph61%30.09 "HgN/A
4:00 PM79 °FScattered clouds.6 mph58%30.09 "HgN/A
3:30 PM79 °FScattered clouds.7 mph58%30.09 "HgN/A
3:00 PM77 °FScattered clouds.6 mph61%30.12 "HgN/A
2:30 PM79 °FScattered clouds.7 mph58%30.12 "HgN/A
2:00 PM79 °FScattered clouds.5 mph58%30.12 "HgN/A
1:30 PM79 °FScattered clouds.5 mph61%30.15 "HgN/A
1:00 PM77 °FScattered clouds.6 mph57%30.18 "HgN/A
12:30 PM77 °FScattered clouds.5 mph57%30.18 "HgN/A
12:00 PM77 °FScattered clouds.6 mph57%30.21 "HgN/A
11:30 AM75 °FScattered clouds.8 mph61%30.21 "HgN/A
11:00 AM75 °FScattered clouds.7 mph61%30.24 "HgN/A
10:30 AM75 °FScattered clouds.9 mph65%30.24 "HgN/A
10:00 AM73 °FScattered clouds.6 mph65%30.24 "HgN/A
9:30 AM73 °FScattered clouds.5 mph65%30.24 "HgN/A
9:00 AM72 °FBroken clouds.5 mph78%30.24 "HgN/A
Weather by CustomWeather, © 2015

See weather overviewHow to use our weather pages